Tracking 30072 objects as of 15-Jan-2025
HD Live streaming from Space Station
objects crossing your sky now

INFORMATOR 1

Track INFORMATOR 1 now!
10-day predictions
INFORMATOR 1 is classified as:


NORAD ID: 21087
Int'l Code: 1991-006A
Perigee: 962.1 km
Apogee: 1,012.3 km
Inclination: 82.9 °
Period: 104.7 minutes
Semi major axis: 7358 km
RCS: 1.8857 m2 (large)
Launch date: January 29, 1991
Source: Commonwealth of Independent States (former USSR) (CIS)
Launch site: PLESETSK MISSILE AND SPACE COMPLEX (PKMTR)

Uplink (MHz):
Downlink (MHz): 145.800
Beacon (MHz): 145.822
Mode: 1200bps BPSK CW
Call sign:
Status: Inactive


Uplink (MHz):
Downlink (MHz): 145.822
Beacon (MHz): 145.822/145.948
Mode: CW
Call sign:
Status: Inactive

Your satellite tracking list
Your tracking list is empty




NASA's NSSDC Master Catalog

Two Line Element Set (TLE):
1 21087U 91006A   25014.91635325  .00000074  00000-0  61170-4 0  9990
2 21087  82.9450 149.3693 0034132 241.7993 241.9450 13.75457560704291
Source of the keplerian elements: AFSPC